Time,TemperatureF,DewpointF,PressureIn,WindDirection,WindDirectionDegrees,WindSpeedMPH,WindSpeedGustMPH,Humidity,HourlyPrecipIn,Conditions,Clouds,dailyrainin,SoftwareType,DateUTC
2013-05-01 00:00:00,57.0,51.2,30.06,South,183,6.0,10.0,81,0.00,,---,0.00,VWS V14.00,2013-05-01 04:00:00,
2013-05-01 00:01:00,57.0,51.2,30.06,South,177,6.0,6.0,81,0.00,,---,0.00,VWS V14.00,2013-05-01 04:01:00,
2013-05-01 00:02:00,56.9,51.1,30.06,South,183,3.0,8.0,81,0.00,,---,0.00,VWS V14.00,2013-05-01 04:02:00,
2013-05-01 00:03:00,57.0,51.2,30.06,South,178,9.0,9.0,81,0.00,,---,0.00,VWS V14.00,2013-05-01 04:03:00,
2013-05-01 00:04:00,57.0,51.2,30.06,SSW,203,3.0,9.0,81,0.00,,---,0.00,VWS V14.00,2013-05-01 04:04:00,
2013-05-01 00:05:00,56.9,51.1,30.06,South,170,6.0,9.0,81,0.00,,---,0.00,VWS V14.00,2013-05-01 04:05:00,
2013-05-01 00:06:00,57.0,51.2,30.06,SW,225,4.0,9.0,81,0.00,,---,0.00,VWS V14.00,2013-05-01 04:06:00,
2013-05-01 00:07:00,56.9,51.1,30.06,SE,126,1.0,9.0,81,0.00,,---,0.00,VWS V14.00,2013-05-01 04:07:00,
2013-05-01 00:08:00,56.9,51.1,30.06,SE,140,6.0,9.0,81,0.00,,---,0.00,VWS V14.00,2013-05-01 04:08:00,
2013-05-01 00:09:00,57.0,51.2,30.06,South,171,5.0,9.0,81,0.00,,---,0.00,VWS V14.00,2013-05-01 04:09:00,
2013-05-01 00:10:00,56.9,51.1,30.06,South,184,5.0,9.0,81,0.00,,---,0.00,VWS V14.00,2013-05-01 04:10:00,
2013-05-01 00:11:00,56.9,51.1,30.06,SSE,160,0.0,9.0,81,0.00,,---,0.00,VWS V14.00,2013-05-01 04:11:00,
2013-05-01 00:12:00,56.9,51.1,30.06,South,183,0.0,9.0,81,0.00,,---,0.00,VWS V14.00,2013-05-01 04:12:00,
2013-05-01 00:13:00,56.9,51.1,30.06,SW,225,6.0,9.0,81,0.00,,---,0.00,VWS V14.00,2013-05-01 04:13:00,
2013-05-01 00:14:00,56.9,51.1,30.06,South,171,8.0,12.0,81,0.00,,---,0.00,VWS V14.00,2013-05-01 04:14:00,
2013-05-01 00:15:00,56.9,51.1,30.06,SSE,154,1.0,12.0,81,0.00,,---,0.00,VWS V14.00,2013-05-01 04:15:00,
2013-05-01 00:16:00,56.9,51.1,30.06,SSW,198,9.0,9.0,81,0.00,,---,0.00,VWS V14.00,2013-05-01 04:16:00,
2013-05-01 00:17:00,56.9,51.1,30.06,SSE,151,2.0,9.0,81,0.00,,---,0.00,VWS V14.00,2013-05-01 04:17:00,
2013-05-01 00:18:00,56.9,51.1,30.06,SSW,196,3.0,9.0,81,0.00,,---,0.00,VWS V14.00,2013-05-01 04:18:00,
2013-05-01 00:19:00,56.9,51.1,30.06,SSW,192,4.0,9.0,81,0.00,,---,0.00,VWS V14.00,2013-05-01 04:19:00,
2013-05-01 00:20:00,56.9,51.1,30.06,SSW,195,4.0,9.0,81,0.00,,---,0.00,VWS V14.00,2013-05-01 04:20:00,
2013-05-01 00:21:00,56.9,51.1,30.06,South,177,7.0,9.0,81,0.00,,---,0.00,VWS V14.00,2013-05-01 04:21:00,
2013-05-01 00:22:00,56.9,51.1,30.06,SSE,152,2.0,9.0,81,0.00,,---,0.00,VWS V14.00,2013-05-01 04:22:00,
2013-05-01 00:23:00,56.9,51.1,30.06,SSE,159,1.0,9.0,81,0.00,,---,0.00,VWS V14.00,2013-05-01 04:23:00,
2013-05-01 00:24:00,56.9,51.1,30.06,South,181,7.0,9.0,81,0.00,,---,0.00,VWS V14.00,2013-05-01 04:24:00,
2013-05-01 00:25:00,56.9,51.1,30.06,SSW,193,9.0,12.0,81,0.00,,---,0.00,VWS V14.00,2013-05-01 04:25:00,
2013-05-01 00:26:00,56.9,51.1,30.06,South,171,2.0,12.0,81,0.00,,---,0.00,VWS V14.00,2013-05-01 04:26:00,
2013-05-01 00:27:00,56.9,51.1,30.06,South,187,1.0,12.0,81,0.00,,---,0.00,VWS V14.00,2013-05-01 04:27:00,
2013-05-01 00:28:00,56.8,51.0,30.06,SSW,196,11.0,12.0,81,0.00,,---,0.00,VWS V14.00,2013-05-01 04:28:00,
2013-05-01 00:29:00,56.8,51.0,30.06,South,188,3.0,12.0,81,0.00,,---,0.00,VWS V14.00,2013-05-01 04:29:00,
2013-05-01 00:30:00,56.8,51.0,30.06,ESE,112,4.0,12.0,81,0.00,,---,0.00,VWS V14.00,2013-05-01 04:30:00,
2013-05-01 00:31:00,56.8,51.0,30.06,SE,138,9.0,9.0,81,0.00,,---,0.00,VWS V14.00,2013-05-01 04:31:00,
2013-05-01 00:32:00,56.8,51.0,30.06,ESE,123,7.0,9.0,81,0.00,,---,0.00,VWS V14.00,2013-05-01 04:32:00,
2013-05-01 00:33:00,56.8,51.0,30.06,ESE,106,5.0,9.0,81,0.00,,---,0.00,VWS V14.00,2013-05-01 04:33:00,
2013-05-01 00:34:00,56.8,51.0,30.06,South,172,4.0,9.0,81,0.00,,---,0.00,VWS V14.00,2013-05-01 04:34:00,
2013-05-01 00:35:00,56.8,51.0,30.06,South,187,8.0,11.0,81,0.00,,---,0.00,VWS V14.00,2013-05-01 04:35:00,
2013-05-01 00:36:00,56.8,51.0,30.06,SE,136,5.0,11.0,81,0.00,,---,0.00,VWS V14.00,2013-05-01 04:36:00,
2013-05-01 00:37:00,56.8,51.0,30.06,ESE,106,0.0,11.0,81,0.00,,---,0.00,VWS V14.00,2013-05-01 04:37:00,
2013-05-01 00:38:00,56.8,51.0,30.06,South,178,1.0,11.0,81,0.00,,---,0.00,VWS V14.00,2013-05-01 04:38:00,
2013-05-01 00:39:00,56.8,51.0,30.06,SSE,153,2.0,11.0,81,0.00,,---,0.00,VWS V14.00,2013-05-01 04:39:00,
2013-05-01 00:40:00,56.8,51.4,30.06,SSE,161,0.0,11.0,82,0.00,,---,0.00,VWS V14.00,2013-05-01 04:40:00,
2013-05-01 00:41:00,56.8,51.0,30.06,SSE,164,4.0,11.0,81,0.00,,---,0.00,VWS V14.00,2013-05-01 04:41:00,
2013-05-01 00:42:00,56.8,51.4,30.06,SSE,155,6.0,11.0,82,0.00,,---,0.00,VWS V14.00,2013-05-01 04:42:00,
2013-05-01 00:43:00,56.8,51.0,30.06,South,179,1.0,11.0,81,0.00,,---,0.00,VWS V14.00,2013-05-01 04:43:00,
2013-05-01 00:44:00,56.8,51.0,30.06,WSW,244,5.0,11.0,81,0.00,,---,0.00,VWS V14.00,2013-05-01 04:44:00,
2013-05-01 00:45:00,56.8,51.0,30.06,SE,133,5.0,11.0,81,0.00,,---,0.00,VWS V14.00,2013-05-01 04:45:00,
2013-05-01 00:46:00,56.8,51.0,30.06,South,190,8.0,8.0,81,0.00,,---,0.00,VWS V14.00,2013-05-01 04:46:00,
2013-05-01 00:47:00,56.8,51.4,30.06,South,184,1.0,8.0,82,0.00,,---,0.00,VWS V14.00,2013-05-01 04:47:00,
2013-05-01 00:48:00,56.8,51.0,30.06,South,177,1.0,9.0,81,0.00,,---,0.00,VWS V14.00,2013-05-01 04:48:00,
2013-05-01 00:49:00,56.8,51.4,30.06,ESE,118,1.0,10.0,82,0.00,,---,0.00,VWS V14.00,2013-05-01 04:49:00,
2013-05-01 00:50:00,56.8,51.0,30.06,SE,128,5.0,10.0,81,0.00,,---,0.00,VWS V14.00,2013-05-01 04:50:00,
2013-05-01 00:51:00,56.8,51.4,30.06,South,184,6.0,10.0,82,0.00,,---,0.00,VWS V14.00,2013-05-01 04:51:00,
2013-05-01 00:52:00,56.8,51.4,30.06,SSE,157,4.0,10.0,82,0.00,,---,0.00,VWS V14.00,2013-05-01 04:52:00,
2013-05-01 00:53:00,56.8,51.0,30.06,SSE,158,6.0,10.0,81,0.00,,---,0.00,VWS V14.00,2013-05-01 04:53:00,
2013-05-01 00:54:00,56.8,51.0,30.06,SE,139,1.0,10.0,81,0.00,,---,0.00,VWS V14.00,2013-05-01 04:54:00,
2013-05-01 00:55:00,56.7,50.9,30.06,SSE,163,4.0,10.0,81,0.00,,---,0.00,VWS V14.00,2013-05-01 04:55:00,
2013-05-01 00:56:00,56.7,50.9,30.06,South,178,6.0,10.0,81,0.00,,---,0.00,VWS V14.00,2013-05-01 04:56:00,
2013-05-01 00:57:00,56.7,51.3,30.06,SSE,163,0.0,10.0,82,0.00,,---,0.00,VWS V14.00,2013-05-01 04:57:00,
2013-05-01 00:58:00,56.7,51.3,30.06,South,186,5.0,10.0,82,0.00,,---,0.00,VWS V14.00,2013-05-01 04:58:00,
2013-05-01 00:59:00,56.7,51.3,30.06,SSE,165,5.0,10.0,82,0.00,,---,0.00,VWS V14.00,2013-05-01 04:59:00,
2013-05-01 01:00:00,56.7,51.3,30.06,SE,126,6.0,10.0,82,0.00,,---,0.00,VWS V14.00,2013-05-01 05:00:00,
2013-05-01 01:01:00,56.7,51.3,30.06,South,179,4.0,6.0,82,0.00,,---,0.00,VWS V14.00,2013-05-01 05:01:00,
2013-05-01 01:02:00,56.7,51.3,30.06,South,178,7.0,7.0,82,0.00,,---,0.00,VWS V14.00,2013-05-01 05:02:00,
2013-05-01 01:03:00,56.6,51.2,30.06,SSE,165,5.0,11.0,82,0.00,,---,0.00,VWS V14.00,2013-05-01 05:03:00,
2013-05-01 01:04:00,56.6,51.2,30.06,South,178,5.0,11.0,82,0.00,,---,0.00,VWS V14.00,2013-05-01 05:04:00,
2013-05-01 01:05:00,56.7,51.3,30.06,SSW,203,5.0,11.0,82,0.00,,---,0.00,VWS V14.00,2013-05-01 05:05:00,
2013-05-01 01:06:00,56.7,51.3,30.06,South,184,6.0,11.0,82,0.00,,---,0.00,VWS V14.00,2013-05-01 05:06:00,
2013-05-01 01:07:00,56.7,51.3,30.06,SSW,194,5.0,11.0,82,0.00,,---,0.00,VWS V14.00,2013-05-01 05:07:00,
2013-05-01 01:08:00,56.7,51.3,30.06,South,182,3.0,11.0,82,0.00,,---,0.00,VWS V14.00,2013-05-01 05:08:00,
2013-05-01 01:09:00,56.6,51.2,30.06,SSE,165,7.0,11.0,82,0.00,,---,0.00,VWS V14.00,2013-05-01 05:09:00,
2013-05-01 01:10:00,56.6,51.2,30.06,South,169,0.0,11.0,82,0.00,,---,0.00,VWS V14.00,2013-05-01 05:10:00,
2013-05-01 01:11:00,56.6,51.2,30.06,SSE,153,2.0,11.0,82,0.00,,---,0.00,VWS V14.00,2013-05-01 05:11:00,
2013-05-01 01:12:00,56.7,51.3,30.06,SSW,192,6.0,11.0,82,0.00,,---,0.00,VWS V14.00,2013-05-01 05:12:00,
2013-05-01 01:13:00,56.6,51.2,30.06,South,177,4.0,11.0,82,0.00,,---,0.00,VWS V14.00,2013-05-01 05:13:00,
2013-05-01 01:14:00,56.6,51.2,30.06,SE,144,2.0,11.0,82,0.00,,---,0.00,VWS V14.00,2013-05-01 05:14:00,
2013-05-01 01:15:00,56.6,51.2,30.06,South,175,6.0,11.0,82,0.00,,---,0.00,VWS V14.00,2013-05-01 05:15:00,
2013-05-01 01:16:00,56.6,51.2,30.06,SSE,165,7.0,8.0,82,0.00,,---,0.00,VWS V14.00,2013-05-01 05:16:00,
2013-05-01 01:17:00,56.6,51.2,30.06,South,184,8.0,15.0,82,0.00,,---,0.00,VWS V14.00,2013-05-01 05:17:00,
2013-05-01 01:18:00,56.6,51.2,30.06,South,184,1.0,15.0,82,0.00,,---,0.00,VWS V14.00,2013-05-01 05:18:00,
2013-05-01 01:19:00,56.6,51.2,30.06,SE,139,7.0,15.0,82,0.00,,---,0.00,VWS V14.00,2013-05-01 05:19:00,
2013-05-01 01:20:00,56.6,51.2,30.06,South,177,10.0,15.0,82,0.00,,---,0.00,VWS V14.00,2013-05-01 05:20:00,
2013-05-01 01:21:00,56.6,51.2,30.06,South,178,6.0,15.0,82,0.00,,---,0.00,VWS V14.00,2013-05-01 05:21:00,
2013-05-01 01:22:00,56.6,51.2,30.06,SSE,157,6.0,15.0,82,0.00,,---,0.00,VWS V14.00,2013-05-01 05:22:00,
2013-05-01 01:23:00,56.6,51.2,30.06,SSW,196,4.0,15.0,82,0.00,,---,0.00,VWS V14.00,2013-05-01 05:23:00,
2013-05-01 01:24:00,56.6,51.2,30.06,South,177,0.0,15.0,82,0.00,,---,0.00,VWS V14.00,2013-05-01 05:24:00,
2013-05-01 01:25:00,56.6,51.2,30.06,SSE,153,0.0,15.0,82,0.00,,---,0.00,VWS V14.00,2013-05-01 05:25:00,
2013-05-01 01:26:00,56.6,51.2,30.06,ESE,115,5.0,15.0,82,0.00,,---,0.00,VWS V14.00,2013-05-01 05:26:00,
2013-05-01 01:27:00,56.6,51.2,30.06,SSW,193,5.0,15.0,82,0.00,,---,0.00,VWS V14.00,2013-05-01 05:27:00,
2013-05-01 01:28:00,56.6,51.2,30.06,South,186,9.0,15.0,82,0.00,,---,0.00,VWS V14.00,2013-05-01 05:28:00,
2013-05-01 01:29:00,56.6,51.2,30.06,SSW,206,5.0,15.0,82,0.00,,---,0.00,VWS V14.00,2013-05-01 05:29:00,
2013-05-01 01:30:00,56.5,51.1,30.06,SW,219,5.0,15.0,82,0.00,,---,0.00,VWS V14.00,2013-05-01 05:30:00,
2013-05-01 01:31:00,56.5,51.1,30.06,South,170,10.0,11.0,82,0.00,,---,0.00,VWS V14.00,2013-05-01 05:31:00,
2013-05-01 01:32:00,56.5,51.1,30.06,SE,126,2.0,11.0,82,0.00,,---,0.00,VWS V14.00,2013-05-01 05:32:00,
2013-05-01 01:33:00,56.5,51.1,30.06,NNE,19,1.0,11.0,82,0.00,,---,0.00,VWS V14.00,2013-05-01 05:33:00,
2013-05-01 01:34:00,56.5,51.1,30.06,SSE,151,8.0,11.0,82,0.00,,---,0.00,VWS V14.00,2013-05-01 05:34:00,
2013-05-01 01:35:00,56.5,51.1,30.06,SW,223,3.0,11.0,82,0.00,,---,0.00,VWS V14.00,2013-05-01 05:35:00,
2013-05-01 01:36:00,56.5,51.1,30.06,South,187,5.0,11.0,82,0.00,,---,0.00,VWS V14.00,2013-05-01 05:36:00,
2013-05-01 01:37:00,56.5,51.1,30.06,South,184,0.0,11.0,82,0.00,,---,0.00,VWS V14.00,2013-05-01 05:37:00,
2013-05-01 01:38:00,56.5,51.1,30.06,SSE,156,2.0,11.0,82,0.00,,---,0.00,VWS V14.00,2013-05-01 05:38:00,
2013-05-01 01:39:00,56.5,51.1,30.06,South,177,0.0,11.0,82,0.00,,---,0.00,VWS V14.00,2013-05-01 05:39:00,
2013-05-01 01:40:00,56.5,51.1,30.06,South,175,5.0,11.0,82,0.00,,---,0.00,VWS V14.00,2013-05-01 05:40:00,
2013-05-01 01:41:00,56.4,51.0,30.06,South,181,6.0,11.0,82,0.00,,---,0.00,VWS V14.00,2013-05-01 05:41:00,
2013-05-01 01:42:00,56.5,51.1,30.06,South,184,3.0,11.0,82,0.00,,---,0.00,VWS V14.00,2013-05-01 05:42:00,
2013-05-01 01:43:00,56.4,51.0,30.06,SE,132,4.0,11.0,82,0.00,,---,0.00,VWS V14.00,2013-05-01 05:43:00,
2013-05-01 01:44:00,56.4,51.0,30.06,SSW,205,2.0,11.0,82,0.00,,---,0.00,VWS V14.00,2013-05-01 05:44:00,
2013-05-01 01:45:00,56.4,51.0,30.06,South,171,2.0,11.0,82,0.00,,---,0.00,VWS V14.00,2013-05-01 05:45:00,
2013-05-01 01:46:00,56.4,51.0,30.06,SSW,206,3.0,4.0,82,0.00,,---,0.00,VWS V14.00,2013-05-01 05:46:00,
2013-05-01 01:47:00,56.4,51.0,30.06,SSE,167,5.0,6.0,82,0.00,,---,0.00,VWS V14.00,2013-05-01 05:47:00,
2013-05-01 01:48:00,56.4,51.0,30.06,South,178,0.0,7.0,82,0.00,,---,0.00,VWS V14.00,2013-05-01 05:48:00,
2013-05-01 01:49:00,56.4,51.0,30.06,SSW,202,6.0,7.0,82,0.00,,---,0.00,VWS V14.00,2013-05-01 05:49:00,
2013-05-01 01:50:00,56.4,51.0,30.06,SSE,167,4.0,7.0,82,0.00,,---,0.00,VWS V14.00,2013-05-01 05:50:00,
2013-05-01 01:51:00,56.3,50.9,30.06,South,179,5.0,7.0,82,0.00,,---,0.00,VWS V14.00,2013-05-01 05:51:00,
2013-05-01 01:52:00,56.3,50.9,30.06,SSW,192,6.0,9.0,82,0.00,,---,0.00,VWS V14.00,2013-05-01 05:52:00,
2013-05-01 01:53:00,56.3,50.9,30.06,SE,136,6.0,9.0,82,0.00,,---,0.00,VWS V14.00,2013-05-01 05:53:00,
2013-05-01 01:54:00,56.3,50.9,30.06,South,186,3.0,9.0,82,0.00,,---,0.00,VWS V14.00,2013-05-01 05:54:00,
2013-05-01 01:55:00,56.3,50.9,30.06,South,178,6.0,9.0,82,0.00,,---,0.00,VWS V14.00,2013-05-01 05:55:00,
2013-05-01 01:56:00,56.3,50.9,30.06,SSW,198,3.0,9.0,82,0.00,,---,0.00,VWS V14.00,2013-05-01 05:56:00,
2013-05-01 01:57:00,56.3,50.9,30.06,SSW,198,4.0,9.0,82,0.00,,---,0.00,VWS V14.00,2013-05-01 05:57:00,
2013-05-01 01:58:00,56.3,50.9,30.06,SSE,148,5.0,9.0,82,0.00,,---,0.00,VWS V14.00,2013-05-01 05:58:00,
2013-05-01 01:59:00,56.3,50.9,30.06,SSE,153,4.0,9.0,82,0.00,,---,0.00,VWS V14.00,2013-05-01 05:59:00,
2013-05-01 02:00:00,56.3,50.9,30.06,SSE,165,0.0,9.0,82,0.00,,---,0.00,VWS V14.00,2013-05-01 06:00:00,
2013-05-01 02:01:00,56.2,50.8,30.06,SSE,166,4.0,5.0,82,0.00,,---,0.00,VWS V14.00,2013-05-01 06:01:00,
2013-05-01 02:02:00,56.2,50.8,30.06,ESE,122,5.0,9.0,82,0.00,,---,0.00,VWS V14.00,2013-05-01 06:02:00,
2013-05-01 02:03:00,56.2,50.8,30.06,South,174,0.0,9.0,82,0.00,,---,0.00,VWS V14.00,2013-05-01 06:03:00,
2013-05-01 02:04:00,56.2,50.8,30.06,South,180,1.0,9.0,82,0.00,,---,0.00,VWS V14.00,2013-05-01 06:04:00,
2013-05-01 02:05:00,56.1,50.7,30.06,ESE,105,5.0,9.0,82,0.00,,---,0.00,VWS V14.00,2013-05-01 06:05:00,
2013-05-01 02:06:00,56.1,50.7,30.07,South,174,7.0,9.0,82,0.00,,---,0.00,VWS V14.00,2013-05-01 06:06:00,
2013-05-01 02:07:00,56.1,50.7,30.07,SSE,155,0.0,9.0,82,0.00,,---,0.00,VWS V14.00,2013-05-01 06:07:00,
2013-05-01 02:08:00,56.1,50.7,30.07,SSW,194,1.0,9.0,82,0.00,,---,0.00,VWS V14.00,2013-05-01 06:08:00,
2013-05-01 02:09:00,56.0,50.6,30.07,South,190,2.0,9.0,82,0.00,,---,0.00,VWS V14.00,2013-05-01 06:09:00,
2013-05-01 02:10:00,56.1,50.7,30.06,SSE,168,0.0,9.0,82,0.00,,---,0.00,VWS V14.00,2013-05-01 06:10:00,
2013-05-01 02:11:00,56.0,50.9,30.07,SSW,192,2.0,9.0,83,0.00,,---,0.00,VWS V14.00,2013-05-01 06:11:00,
2013-05-01 02:12:00,56.0,50.9,30.07,South,188,0.0,9.0,83,0.00,,---,0.00,VWS V14.00,2013-05-01 06:12:00,
2013-05-01 02:13:00,56.0,50.9,30.07,SE,141,1.0,9.0,83,0.00,,---,0.00,VWS V14.00,2013-05-01 06:13:00,
2013-05-01 02:14:00,56.0,50.9,30.07,South,179,0.0,9.0,83,0.00,,---,0.00,VWS V14.00,2013-05-01 06:14:00,
2013-05-01 02:15:00,56.0,50.9,30.07,SSE,160,0.0,9.0,83,0.00,,---,0.00,VWS V14.00,2013-05-01 06:15:00,
2013-05-01 02:16:00,56.0,50.9,30.07,South,170,2.0,2.0,83,0.00,,---,0.00,VWS V14.00,2013-05-01 06:16:00,
2013-05-01 02:17:00,55.9,50.8,30.07,SE,128,0.0,2.0,83,0.00,,---,0.00,VWS V14.00,2013-05-01 06:17:00,
2013-05-01 02:18:00,55.9,50.8,30.07,SSE,161,1.0,5.0,83,0.00,,---,0.00,VWS V14.00,2013-05-01 06:18:00,
2013-05-01 02:19:00,55.9,50.8,30.07,SSW,209,3.0,5.0,83,0.00,,---,0.00,VWS V14.00,2013-05-01 06:19:00,
2013-05-01 02:20:00,55.9,50.8,30.07,South,173,5.0,7.0,83,0.00,,---,0.00,VWS V14.00,2013-05-01 06:20:00,
2013-05-01 02:21:00,55.9,50.8,30.07,SE,138,0.0,7.0,83,0.00,,---,0.00,VWS V14.00,2013-05-01 06:21:00,
2013-05-01 02:22:00,55.9,50.8,30.07,ESE,113,1.0,7.0,83,0.00,,---,0.00,VWS V14.00,2013-05-01 06:22:00,
2013-05-01 02:23:00,55.9,50.8,30.08,ESE,120,1.0,7.0,83,0.00,,---,0.00,VWS V14.00,2013-05-01 06:23:00,
2013-05-01 02:24:00,55.9,50.8,30.07,South,177,1.0,7.0,83,0.00,,---,0.00,VWS V14.00,2013-05-01 06:24:00,
2013-05-01 02:25:00,55.8,50.7,30.07,South,177,0.0,7.0,83,0.00,,---,0.00,VWS V14.00,2013-05-01 06:25:00,
2013-05-01 02:26:00,55.8,50.7,30.07,South,185,3.0,11.0,83,0.00,,---,0.00,VWS V14.00,2013-05-01 06:26:00,
2013-05-01 02:27:00,55.8,50.7,30.07,SE,138,0.0,11.0,83,0.00,,---,0.00,VWS V14.00,2013-05-01 06:27:00,
2013-05-01 02:28:00,55.8,50.7,30.07,South,190,0.0,11.0,83,0.00,,---,0.00,VWS V14.00,2013-05-01 06:28:00,
2013-05-01 02:29:00,55.8,50.7,30.07,South,190,0.0,11.0,83,0.00,,---,0.00,VWS V14.00,2013-05-01 06:29:00,
2013-05-01 02:30:00,55.8,50.7,30.07,South,181,0.0,11.0,83,0.00,,---,0.00,VWS V14.00,2013-05-01 06:30:00,
2013-05-01 02:31:00,55.7,50.6,30.07,SSE,151,0.0,1.0,83,0.00,,---,0.00,VWS V14.00,2013-05-01 06:31:00,
2013-05-01 02:32:00,55.7,50.6,30.08,SSE,151,0.0,1.0,83,0.00,,---,0.00,VWS V14.00,2013-05-01 06:32:00,
2013-05-01 02:33:00,55.7,50.6,30.07,SE,131,6.0,6.0,83,0.00,,---,0.00,VWS V14.00,2013-05-01 06:33:00,
2013-05-01 02:34:00,55.7,50.6,30.07,SE,141,1.0,6.0,83,0.00,,---,0.00,VWS V14.00,2013-05-01 06:34:00,
2013-05-01 02:35:00,55.7,50.6,30.07,SE,140,1.0,6.0,83,0.00,,---,0.00,VWS V14.00,2013-05-01 06:35:00,
2013-05-01 02:36:00,55.6,50.5,30.08,SE,140,0.0,6.0,83,0.00,,---,0.00,VWS V14.00,2013-05-01 06:36:00,
2013-05-01 02:37:00,55.6,50.5,30.07,SE,130,0.0,6.0,83,0.00,,---,0.00,VWS V14.00,2013-05-01 06:37:00,
2013-05-01 02:38:00,55.6,50.5,30.07,ESE,121,0.0,6.0,83,0.00,,---,0.00,VWS V14.00,2013-05-01 06:38:00,
2013-05-01 02:39:00,55.6,50.5,30.07,SE,140,0.0,6.0,83,0.00,,---,0.00,VWS V14.00,2013-05-01 06:39:00,
2013-05-01 02:40:00,55.6,50.8,30.07,SSW,193,2.0,8.0,84,0.00,,---,0.00,VWS V14.00,2013-05-01 06:40:00,
2013-05-01 02:41:00,55.6,50.8,30.07,SSE,150,0.0,8.0,84,0.00,,---,0.00,VWS V14.00,2013-05-01 06:41:00,
2013-05-01 02:42:00,55.5,50.8,30.07,ESE,103,4.0,8.0,84,0.00,,---,0.00,VWS V14.00,2013-05-01 06:42:00,
2013-05-01 02:43:00,55.6,50.8,30.08,SSE,155,1.0,8.0,84,0.00,,---,0.00,VWS V14.00,2013-05-01 06:43:00,
2013-05-01 02:44:00,55.5,50.8,30.07,SSE,152,0.0,8.0,84,0.00,,---,0.00,VWS V14.00,2013-05-01 06:44:00,
2013-05-01 02:45:00,55.5,50.8,30.07,SSE,158,0.0,8.0,84,0.00,,---,0.00,VWS V14.00,2013-05-01 06:45:00,
2013-05-01 02:46:00,55.5,50.8,30.08,SSE,158,0.0,1.0,84,0.00,,---,0.00,VWS V14.00,2013-05-01 06:46:00,
2013-05-01 02:47:00,55.5,50.8,30.08,East,101,4.0,7.0,84,0.00,,---,0.00,VWS V14.00,2013-05-01 06:47:00,
2013-05-01 02:48:00,55.5,50.8,30.08,ESE,105,1.0,7.0,84,0.00,,---,0.00,VWS V14.00,2013-05-01 06:48:00,
2013-05-01 02:49:00,55.5,50.8,30.08,SSE,167,1.0,7.0,84,0.00,,---,0.00,VWS V14.00,2013-05-01 06:49:00,
2013-05-01 02:50:00,55.5,50.8,30.08,SSE,159,6.0,7.0,84,0.00,,---,0.00,VWS V14.00,2013-05-01 06:50:00,
2013-05-01 02:51:00,55.5,50.8,30.08,South,172,2.0,8.0,84,0.00,,---,0.00,VWS V14.00,2013-05-01 06:51:00,
2013-05-01 02:52:00,55.5,50.8,30.08,ESE,104,0.0,8.0,84,0.00,,---,0.00,VWS V14.00,2013-05-01 06:52:00,
2013-05-01 02:53:00,55.5,50.8,30.08,South,190,3.0,8.0,84,0.00,,---,0.00,VWS V14.00,2013-05-01 06:53:00,
2013-05-01 02:54:00,55.5,50.8,30.08,South,176,0.0,8.0,84,0.00,,---,0.00,VWS V14.00,2013-05-01 06:54:00,
2013-05-01 02:55:00,55.5,50.8,30.08,SE,132,1.0,8.0,84,0.00,,---,0.00,VWS V14.00,2013-05-01 06:55:00,
2013-05-01 02:56:00,55.4,50.7,30.08,South,184,0.0,8.0,84,0.00,,---,0.00,VWS V14.00,2013-05-01 06:56:00,
2013-05-01 02:57:00,55.4,50.7,30.08,SSE,168,2.0,8.0,84,0.00,,---,0.00,VWS V14.00,2013-05-01 06:57:00,
2013-05-01 02:58:00,55.4,50.7,30.08,South,171,4.0,8.0,84,0.00,,---,0.00,VWS V14.00,2013-05-01 06:58:00,
2013-05-01 02:59:00,55.5,50.8,30.08,South,186,6.0,8.0,84,0.00,,---,0.00,VWS V14.00,2013-05-01 06:59:00,
2013-05-01 03:00:00,55.4,50.7,30.08,South,175,1.0,8.0,84,0.00,,---,0.00,VWS V14.00,2013-05-01 07:00:00,
2013-05-01 03:01:00,55.5,50.8,30.08,SSE,166,1.0,1.0,84,0.00,,---,0.00,VWS V14.00,2013-05-01 07:01:00,
2013-05-01 03:02:00,55.4,50.7,30.08,South,189,2.0,2.0,84,0.00,,---,0.00,VWS V14.00,2013-05-01 07:02:00,
2013-05-01 03:03:00,55.4,50.7,30.08,South,180,1.0,3.0,84,0.00,,---,0.00,VWS V14.00,2013-05-01 07:03:00,
2013-05-01 03:04:00,55.4,50.7,30.08,SSE,152,6.0,6.0,84,0.00,,---,0.00,VWS V14.00,2013-05-01 07:04:00,
2013-05-01 03:05:00,55.4,50.7,30.08,SSE,163,0.0,6.0,84,0.00,,---,0.00,VWS V14.00,2013-05-01 07:05:00,
2013-05-01 03:06:00,55.4,50.7,30.08,South,176,2.0,6.0,84,0.00,,---,0.00,VWS V14.00,2013-05-01 07:06:00,
2013-05-01 03:07:00,55.4,50.7,30.08,SE,138,0.0,8.0,84,0.00,,---,0.00,VWS V14.00,2013-05-01 07:07:00,
2013-05-01 03:08:00,55.4,50.7,30.08,SSE,157,0.0,8.0,84,0.00,,---,0.00,VWS V14.00,2013-05-01 07:08:00,
2013-05-01 03:09:00,55.4,50.7,30.08,SE,139,0.0,8.0,84,0.00,,---,0.00,VWS V14.00,2013-05-01 07:09:00,
2013-05-01 03:10:00,55.4,50.7,30.08,South,177,2.0,8.0,84,0.00,,---,0.00,VWS V14.00,2013-05-01 07:10:00,
2013-05-01 03:11:00,55.4,50.7,30.08,SSE,159,2.0,8.0,84,0.00,,---,0.00,VWS V14.00,2013-05-01 07:11:00,
2013-05-01 03:12:00,55.3,50.6,30.08,SE,133,0.0,8.0,84,0.00,,---,0.00,VWS V14.00,2013-05-01 07:12:00,
2013-05-01 03:13:00,55.3,50.6,30.08,South,187,7.0,8.0,84,0.00,,---,0.00,VWS V14.00,2013-05-01 07:13:00,
2013-05-01 03:14:00,55.3,50.6,30.08,SSE,159,7.0,8.0,84,0.00,,---,0.00,VWS V14.00,2013-05-01 07:14:00,
2013-05-01 03:15:00,55.3,50.6,30.08,SE,131,1.0,8.0,84,0.00,,---,0.00,VWS V14.00,2013-05-01 07:15:00,
2013-05-01 03:16:00,55.3,50.6,30.08,South,186,3.0,5.0,84,0.00,,---,0.00,VWS V14.00,2013-05-01 07:16:00,
2013-05-01 03:17:00,55.4,50.7,30.08,ESE,117,1.0,5.0,84,0.00,,---,0.00,VWS V14.00,2013-05-01 07:17:00,
2013-05-01 03:18:00,55.4,50.7,30.08,SSE,161,4.0,7.0,84,0.00,,---,0.00,VWS V14.00,2013-05-01 07:18:00,
2013-05-01 03:19:00,55.4,50.7,30.08,South,178,1.0,7.0,84,0.00,,---,0.00,VWS V14.00,2013-05-01 07:19:00,
2013-05-01 03:20:00,55.4,50.7,30.08,South,182,1.0,7.0,84,0.00,,---,0.00,VWS V14.00,2013-05-01 07:20:00,
2013-05-01 03:21:00,55.4,50.7,30.08,SSW,196,2.0,7.0,84,0.00,,---,0.00,VWS V14.00,2013-05-01 07:21:00,
2013-05-01 03:22:00,55.4,50.7,30.08,South,173,1.0,7.0,84,0.00,,---,0.00,VWS V14.00,2013-05-01 07:22:00,
2013-05-01 03:23:00,55.4,50.7,30.08,South,183,2.0,7.0,84,0.00,,---,0.00,VWS V14.00,2013-05-01 07:23:00,
2013-05-01 03:24:00,55.4,50.7,30.08,SE,132,6.0,9.0,84,0.00,,---,0.00,VWS V14.00,2013-05-01 07:24:00,
2013-05-01 03:25:00,55.4,50.7,30.08,South,189,4.0,9.0,84,0.00,,---,0.00,VWS V14.00,2013-05-01 07:25:00,
2013-05-01 03:26:00,55.4,50.7,30.08,SSE,166,0.0,9.0,84,0.00,,---,0.00,VWS V14.00,2013-05-01 07:26:00,
2013-05-01 03:27:00,55.4,50.7,30.08,SSE,163,0.0,9.0,84,0.00,,---,0.00,VWS V14.00,2013-05-01 07:27:00,
2013-05-01 03:28:00,55.4,50.7,30.08,SE,136,1.0,9.0,84,0.00,,---,0.00,VWS V14.00,2013-05-01 07:28:00,
2013-05-01 03:29:00,55.4,50.7,30.08,South,189,3.0,9.0,84,0.00,,---,0.00,VWS V14.00,2013-05-01 07:29:00,
2013-05-01 03:30:00,55.3,50.6,30.08,South,176,5.0,9.0,84,0.00,,---,0.00,VWS V14.00,2013-05-01 07:30:00,
2013-05-01 03:31:00,55.3,50.6,30.08,SE,146,1.0,5.0,84,0.00,,---,0.00,VWS V14.00,2013-05-01 07:31:00,
2013-05-01 03:32:00,55.3,50.6,30.08,SSE,152,2.0,5.0,84,0.00,,---,0.00,VWS V14.00,2013-05-01 07:32:00,
2013-05-01 03:33:00,55.3,50.6,30.08,SW,231,0.0,5.0,84,0.00,,---,0.00,VWS V14.00,2013-05-01 07:33:00,
2013-05-01 03:34:00,55.3,50.6,30.08,South,184,3.0,6.0,84,0.00,,---,0.00,VWS V14.00,2013-05-01 07:34:00,
2013-05-01 03:35:00,55.2,50.5,30.08,SSE,166,2.0,6.0,84,0.00,,---,0.00,VWS V14.00,2013-05-01 07:35:00,
2013-05-01 03:36:00,55.2,50.5,30.08,ESE,118,0.0,6.0,84,0.00,,---,0.00,VWS V14.00,2013-05-01 07:36:00,
2013-05-01 03:37:00,55.2,50.5,30.08,South,179,2.0,6.0,84,0.00,,---,0.00,VWS V14.00,2013-05-01 07:37:00,
2013-05-01 03:38:00,55.2,50.5,30.08,South,180,2.0,6.0,84,0.00,,---,0.00,VWS V14.00,2013-05-01 07:38:00,
2013-05-01 03:39:00,55.2,50.5,30.08,South,185,1.0,6.0,84,0.00,,---,0.00,VWS V14.00,2013-05-01 07:39:00,
2013-05-01 03:40:00,55.2,50.5,30.08,South,185,1.0,6.0,84,0.00,,---,0.00,VWS V14.00,2013-05-01 07:40:00,
2013-05-01 03:41:00,55.2,50.5,30.08,South,176,5.0,6.0,84,0.00,,---,0.00,VWS V14.00,2013-05-01 07:41:00,
2013-05-01 03:42:00,55.1,50.4,30.08,South,178,1.0,7.0,84,0.00,,---,0.00,VWS V14.00,2013-05-01 07:42:00,
2013-05-01 03:43:00,55.2,50.5,30.08,South,184,2.0,7.0,84,0.00,,---,0.00,VWS V14.00,2013-05-01 07:43:00,
2013-05-01 03:44:00,55.2,50.5,30.08,South,186,0.0,7.0,84,0.00,,---,0.00,VWS V14.00,2013-05-01 07:44:00,
2013-05-01 03:45:00,55.1,50.4,30.08,SSE,155,0.0,7.0,84,0.00,,---,0.00,VWS V14.00,2013-05-01 07:45:00,
2013-05-01 03:46:00,55.1,50.4,30.08,SE,142,0.0,6.0,84,0.00,,---,0.00,VWS V14.00,2013-05-01 07:46:00,
2013-05-01 03:47:00,55.1,50.4,30.08,SE,138,0.0,6.0,84,0.00,,---,0.00,VWS V14.00,2013-05-01 07:47:00,
2013-05-01 03:48:00,55.1,50.4,30.08,SE,135,0.0,6.0,84,0.00,,---,0.00,VWS V14.00,2013-05-01 07:48:00,
2013-05-01 03:49:00,55.1,50.4,30.08,SSE,163,0.0,6.0,84,0.00,,---,0.00,VWS V14.00,2013-05-01 07:49:00,
2013-05-01 03:50:00,55.1,50.4,30.08,South,180,1.0,7.0,84,0.00,,---,0.00,VWS V14.00,2013-05-01 07:50:00,
2013-05-01 03:51:00,55.1,50.4,30.08,East,97,1.0,7.0,84,0.00,,---,0.00,VWS V14.00,2013-05-01 07:51:00,
2013-05-01 03:52:00,55.0,50.3,30.08,ESE,123,0.0,7.0,84,0.00,,---,0.00,VWS V14.00,2013-05-01 07:52:00,
2013-05-01 03:53:00,55.0,50.3,30.08,SSW,192,0.0,7.0,84,0.00,,---,0.00,VWS V14.00,2013-05-01 07:53:00,
2013-05-01 03:54:00,55.0,50.6,30.08,South,180,0.0,7.0,85,0.00,,---,0.00,VWS V14.00,2013-05-01 07:54:00,
2013-05-01 03:55:00,55.0,50.6,30.08,South,186,0.0,7.0,85,0.00,,---,0.00,VWS V14.00,2013-05-01 07:55:00,
2013-05-01 03:56:00,55.0,50.6,30.09,South,188,3.0,7.0,85,0.00,,---,0.00,VWS V14.00,2013-05-01 07:56:00,
2013-05-01 03:57:00,55.0,50.6,30.09,SE,140,1.0,7.0,85,0.00,,---,0.00,VWS V14.00,2013-05-01 07:57:00,
2013-05-01 03:58:00,54.9,50.5,30.08,South,173,0.0,7.0,85,0.00,,---,0.00,VWS V14.00,2013-05-01 07:58:00,
2013-05-01 03:59:00,55.0,50.6,30.09,SSE,157,4.0,8.0,85,0.00,,---,0.00,VWS V14.00,2013-05-01 07:59:00,
2013-05-01 04:00:00,54.9,50.5,30.09,SSE,162,1.0,8.0,85,0.00,,---,0.00,VWS V14.00,2013-05-01 08:00:00,
2013-05-01 04:01:00,54.9,50.5,30.09,ESE,109,5.0,5.0,85,0.00,,---,0.00,VWS V14.00,2013-05-01 08:01:00,
2013-05-01 04:02:00,54.9,50.5,30.09,SE,146,2.0,5.0,85,0.00,,---,0.00,VWS V14.00,2013-05-01 08:02:00,
2013-05-01 04:03:00,54.9,50.5,30.09,South,179,1.0,5.0,85,0.00,,---,0.00,VWS V14.00,2013-05-01 08:03:00,
2013-05-01 04:04:00,54.9,50.5,30.08,ESE,112,0.0,5.0,85,0.00,,---,0.00,VWS V14.00,2013-05-01 08:04:00,
2013-05-01 04:05:00,54.9,50.5,30.08,SE,143,0.0,5.0,85,0.00,,---,0.00,VWS V14.00,2013-05-01 08:05:00,
2013-05-01 04:06:00,54.9,50.5,30.09,South,173,6.0,6.0,85,0.00,,---,0.00,VWS V14.00,2013-05-01 08:06:00,
2013-05-01 04:07:00,54.9,50.5,30.09,SE,145,1.0,6.0,85,0.00,,---,0.00,VWS V14.00,2013-05-01 08:07:00,
2013-05-01 04:08:00,54.8,50.4,30.09,SE,131,0.0,6.0,85,0.00,,---,0.00,VWS V14.00,2013-05-01 08:08:00,
2013-05-01 04:09:00,54.8,50.4,30.09,SE,133,4.0,6.0,85,0.00,,---,0.00,VWS V14.00,2013-05-01 08:09:00,
2013-05-01 04:10:00,54.8,50.4,30.09,SE,125,0.0,6.0,85,0.00,,---,0.00,VWS V14.00,2013-05-01 08:10:00,
2013-05-01 04:11:00,54.8,50.4,30.09,SSW,198,0.0,6.0,85,0.00,,---,0.00,VWS V14.00,2013-05-01 08:11:00,
2013-05-01 04:12:00,54.8,50.4,30.09,SSE,153,0.0,6.0,85,0.00,,---,0.00,VWS V14.00,2013-05-01 08:12:00,
2013-05-01 04:13:00,54.8,50.4,30.09,South,189,7.0,7.0,85,0.00,,---,0.00,VWS V14.00,2013-05-01 08:13:00,
2013-05-01 04:14:00,54.8,50.4,30.09,ESE,113,1.0,7.0,85,0.00,,---,0.00,VWS V14.00,2013-05-01 08:14:00,
2013-05-01 04:15:00,54.8,50.4,30.09,West,261,1.0,7.0,85,0.00,,---,0.00,VWS V14.00,2013-05-01 08:15:00,
2013-05-01 04:16:00,54.8,50.4,30.09,South,179,4.0,6.0,85,0.00,,---,0.00,VWS V14.00,2013-05-01 08:16:00,
2013-05-01 04:17:00,54.8,50.4,30.09,South,169,2.0,6.0,85,0.00,,---,0.00,VWS V14.00,2013-05-01 08:17:00,
2013-05-01 04:18:00,54.8,50.4,30.09,SE,135,0.0,6.0,85,0.00,,---,0.00,VWS V14.00,2013-05-01 08:18:00,
2013-05-01 04:19:00,54.8,50.4,30.09,SSW,201,3.0,6.0,85,0.00,,---,0.00,VWS V14.00,2013-05-01 08:19:00,
2013-05-01 04:20:00,54.8,50.4,30.09,South,190,6.0,6.0,85,0.00,,---,0.00,VWS V14.00,2013-05-01 08:20:00,
2013-05-01 04:21:00,54.7,50.3,30.09,South,180,2.0,6.0,85,0.00,,---,0.00,VWS V14.00,2013-05-01 08:21:00,
2013-05-01 04:22:00,54.7,50.3,30.09,South,182,1.0,9.0,85,0.00,,---,0.00,VWS V14.00,2013-05-01 08:22:00,
2013-05-01 04:23:00,54.7,50.3,30.09,SSE,153,0.0,9.0,85,0.00,,---,0.00,VWS V14.00,2013-05-01 08:23:00,
2013-05-01 04:24:00,54.7,50.3,30.09,SSE,155,0.0,9.0,85,0.00,,---,0.00,VWS V14.00,2013-05-01 08:24:00,
2013-05-01 04:25:00,54.7,50.3,30.10,SSE,157,0.0,9.0,85,0.00,,---,0.00,VWS V14.00,2013-05-01 08:25:00,
2013-05-01 04:26:00,54.7,50.3,30.10,SE,146,2.0,9.0,85,0.00,,---,0.00,VWS V14.00,2013-05-01 08:26:00,
2013-05-01 04:27:00,54.6,50.2,30.10,South,174,2.0,9.0,85,0.00,,---,0.00,VWS V14.00,2013-05-01 08:27:00,
2013-05-01 04:28:00,54.6,50.2,30.10,SSE,157,1.0,9.0,85,0.00,,---,0.00,VWS V14.00,2013-05-01 08:28:00,
2013-05-01 04:29:00,54.6,50.2,30.10,South,176,0.0,9.0,85,0.00,,---,0.00,VWS V14.00,2013-05-01 08:29:00,
2013-05-01 04:30:00,54.6,50.2,30.10,ESE,116,0.0,9.0,85,0.00,,---,0.00,VWS V14.00,2013-05-01 08:30:00,
2013-05-01 04:31:00,54.6,50.2,30.10,South,179,1.0,4.0,85,0.00,,---,0.00,VWS V14.00,2013-05-01 08:31:00,
2013-05-01 04:32:00,54.6,50.2,30.10,SE,130,0.0,4.0,85,0.00,,---,0.00,VWS V14.00,2013-05-01 08:32:00,
2013-05-01 04:33:00,54.6,50.2,30.10,South,187,1.0,4.0,85,0.00,,---,0.00,VWS V14.00,2013-05-01 08:33:00,
2013-05-01 04:34:00,54.6,50.2,30.10,SSW,192,0.0,4.0,85,0.00,,---,0.00,VWS V14.00,2013-05-01 08:34:00,
2013-05-01 04:35:00,54.6,50.2,30.10,South,178,0.0,4.0,85,0.00,,---,0.00,VWS V14.00,2013-05-01 08:35:00,
2013-05-01 04:36:00,54.6,50.2,30.10,South,180,0.0,4.0,85,0.00,,---,0.00,VWS V14.00,2013-05-01 08:36:00,
2013-05-01 04:37:00,54.5,50.1,30.10,SSE,167,0.0,4.0,85,0.00,,---,0.00,VWS V14.00,2013-05-01 08:37:00,
2013-05-01 04:38:00,54.5,50.1,30.10,SSE,153,1.0,4.0,85,0.00,,---,0.00,VWS V14.00,2013-05-01 08:38:00,
2013-05-01 04:39:00,54.5,50.1,30.10,South,182,3.0,6.0,85,0.00,,---,0.00,VWS V14.00,2013-05-01 08:39:00,
2013-05-01 04:40:00,54.5,50.4,30.10,SSE,152,0.0,6.0,86,0.00,,---,0.00,VWS V14.00,2013-05-01 08:40:00,
2013-05-01 04:41:00,54.5,50.4,30.10,South,174,1.0,6.0,86,0.00,,---,0.00,VWS V14.00,2013-05-01 08:41:00,
2013-05-01 04:42:00,54.5,50.4,30.10,SSW,192,0.0,6.0,86,0.00,,---,0.00,VWS V14.00,2013-05-01 08:42:00,
2013-05-01 04:43:00,54.4,50.3,30.10,South,185,4.0,6.0,86,0.00,,---,0.00,VWS V14.00,2013-05-01 08:43:00,
2013-05-01 04:44:00,54.4,50.3,30.10,ESE,117,2.0,6.0,86,0.00,,---,0.00,VWS V14.00,2013-05-01 08:44:00,
2013-05-01 04:45:00,54.4,50.3,30.10,ESE,119,6.0,6.0,86,0.00,,---,0.00,VWS V14.00,2013-05-01 08:45:00,
2013-05-01 04:46:00,54.4,50.3,30.10,SSW,198,0.0,6.0,86,0.00,,---,0.00,VWS V14.00,2013-05-01 08:46:00,
2013-05-01 04:47:00,54.4,50.3,30.10,SE,134,0.0,6.0,86,0.00,,---,0.00,VWS V14.00,2013-05-01 08:47:00,
2013-05-01 04:48:00,54.4,50.3,30.10,SE,129,0.0,6.0,86,0.00,,---,0.00,VWS V14.00,2013-05-01 08:48:00,
2013-05-01 04:49:00,54.4,50.3,30.10,South,177,1.0,6.0,86,0.00,,---,0.00,VWS V14.00,2013-05-01 08:49:00,
2013-05-01 04:50:00,54.4,50.3,30.10,SE,139,0.0,6.0,86,0.00,,---,0.00,VWS V14.00,2013-05-01 08:50:00,
2013-05-01 04:51:00,54.4,50.3,30.10,South,182,1.0,6.0,86,0.00,,---,0.00,VWS V14.00,2013-05-01 08:51:00,
2013-05-01 04:52:00,54.4,50.3,30.10,SE,140,1.0,8.0,86,0.00,,---,0.00,VWS V14.00,2013-05-01 08:52:00,
2013-05-01 04:53:00,54.3,50.2,30.10,SSE,157,0.0,8.0,86,0.00,,---,0.00,VWS V14.00,2013-05-01 08:53:00,
2013-05-01 04:54:00,54.3,50.2,30.10,South,184,2.0,8.0,86,0.00,,---,0.00,VWS V14.00,2013-05-01 08:54:00,
2013-05-01 04:55:00,54.3,50.2,30.10,ESE,123,0.0,8.0,86,0.00,,---,0.00,VWS V14.00,2013-05-01 08:55:00,
2013-05-01 04:56:00,54.3,50.2,30.10,SW,221,2.0,8.0,86,0.00,,---,0.00,VWS V14.00,2013-05-01 08:56:00,
2013-05-01 04:57:00,54.3,50.2,30.10,SSE,148,0.0,8.0,86,0.00,,---,0.00,VWS V14.00,2013-05-01 08:57:00,
2013-05-01 04:58:00,54.3,50.2,30.10,SSE,148,0.0,8.0,86,0.00,,---,0.00,VWS V14.00,2013-05-01 08:58:00,
2013-05-01 04:59:00,54.2,50.1,30.10,South,189,1.0,8.0,86,0.00,,---,0.00,VWS V14.00,2013-05-01 08:59:00,
2013-05-01 05:00:00,54.2,50.1,30.10,SSW,194,1.0,8.0,86,0.00,,---,0.00,VWS V14.00,2013-05-01 09:00:00,
2013-05-01 05:01:00,54.2,50.1,30.10,South,175,0.0,1.0,86,0.00,,---,0.00,VWS V14.00,2013-05-01 09:01:00,
2013-05-01 05:02:00,54.2,50.1,30.10,SE,128,0.0,1.0,86,0.00,,---,0.00,VWS V14.00,2013-05-01 09:02:00,
2013-05-01 05:03:00,54.2,50.1,30.10,South,187,1.0,4.0,86,0.00,,---,0.00,VWS V14.00,2013-05-01 09:03:00,
2013-05-01 05:04:00,54.2,50.1,30.11,SSE,161,1.0,4.0,86,0.00,,---,0.00,VWS V14.00,2013-05-01 09:04:00,
2013-05-01 05:05:00,54.2,50.1,30.10,SSE,154,0.0,4.0,86,0.00,,---,0.00,VWS V14.00,2013-05-01 09:05:00,
2013-05-01 05:06:00,54.2,50.1,30.11,SE,140,0.0,4.0,86,0.00,,---,0.00,VWS V14.00,2013-05-01 09:06:00,
2013-05-01 05:07:00,54.1,50.0,30.11,South,185,1.0,4.0,86,0.00,,---,0.00,VWS V14.00,2013-05-01 09:07:00,
2013-05-01 05:08:00,54.1,50.0,30.11,SSE,157,0.0,4.0,86,0.00,,---,0.00,VWS V14.00,2013-05-01 09:08:00,
2013-05-01 05:09:00,54.1,50.0,30.11,South,184,1.0,4.0,86,0.00,,---,0.00,VWS V14.00,2013-05-01 09:09:00,
2013-05-01 05:10:00,54.1,50.0,30.11,ESE,110,2.0,4.0,86,0.00,,---,0.00,VWS V14.00,2013-05-01 09:10:00,
2013-05-01 05:11:00,54.1,50.0,30.11,SE,143,4.0,6.0,86,0.00,,---,0.00,VWS V14.00,2013-05-01 09:11:00,
2013-05-01 05:12:00,54.1,50.0,30.11,ESE,103,1.0,6.0,86,0.00,,---,0.00,VWS V14.00,2013-05-01 09:12:00,
2013-05-01 05:13:00,54.1,50.0,30.11,SSE,166,1.0,7.0,86,0.00,,---,0.00,VWS V14.00,2013-05-01 09:13:00,
2013-05-01 05:14:00,54.1,50.0,30.11,South,178,0.0,7.0,86,0.00,,---,0.00,VWS V14.00,2013-05-01 09:14:00,
2013-05-01 05:15:00,54.1,50.0,30.11,South,188,4.0,7.0,86,0.00,,---,0.00,VWS V14.00,2013-05-01 09:15:00,
2013-05-01 05:16:00,54.1,50.0,30.11,SSE,163,5.0,5.0,86,0.00,,---,0.00,VWS V14.00,2013-05-01 09:16:00,
2013-05-01 05:17:00,54.1,50.0,30.11,South,173,4.0,5.0,86,0.00,,---,0.00,VWS V14.00,2013-05-01 09:17:00,
2013-05-01 05:18:00,54.1,50.0,30.11,SE,133,4.0,7.0,86,0.00,,---,0.00,VWS V14.00,2013-05-01 09:18:00,
2013-05-01 05:19:00,54.1,50.0,30.11,SSE,150,0.0,7.0,86,0.00,,---,0.00,VWS V14.00,2013-05-01 09:19:00,
2013-05-01 05:20:00,54.1,50.0,30.11,ESE,115,0.0,7.0,86,0.00,,---,0.00,VWS V14.00,2013-05-01 09:20:00,
2013-05-01 05:21:00,54.1,50.0,30.11,SE,132,2.0,7.0,86,0.00,,---,0.00,VWS V14.00,2013-05-01 09:21:00,
2013-05-01 05:22:00,54.1,50.0,30.11,ESE,115,2.0,7.0,86,0.00,,---,0.00,VWS V14.00,2013-05-01 09:22:00,
2013-05-01 05:23:00,54.0,49.9,30.11,SSE,161,0.0,7.0,86,0.00,,---,0.00,VWS V14.00,2013-05-01 09:23:00,
2013-05-01 05:24:00,54.0,49.9,30.11,SE,142,0.0,7.0,86,0.00,,---,0.00,VWS V14.00,2013-05-01 09:24:00,
2013-05-01 05:25:00,54.0,49.9,30.11,ESE,118,4.0,7.0,86,0.00,,---,0.00,VWS V14.00,2013-05-01 09:25:00,
2013-05-01 05:26:00,54.0,49.9,30.11,ESE,115,0.0,7.0,86,0.00,,---,0.00,VWS V14.00,2013-05-01 09:26:00,
2013-05-01 05:27:00,54.0,49.9,30.11,South,174,0.0,7.0,86,0.00,,---,0.00,VWS V14.00,2013-05-01 09:27:00,
2013-05-01 05:28:00,53.9,49.8,30.11,South,179,0.0,7.0,86,0.00,,---,0.00,VWS V14.00,2013-05-01 09:28:00,
2013-05-01 05:29:00,53.9,49.8,30.11,ESE,117,0.0,7.0,86,0.00,,---,0.00,VWS V14.00,2013-05-01 09:29:00,
2013-05-01 05:30:00,53.9,49.8,30.11,ESE,117,1.0,7.0,86,0.00,,---,0.00,VWS V14.00,2013-05-01 09:30:00,
2013-05-01 05:31:00,53.9,49.8,30.11,SSE,154,2.0,2.0,86,0.00,,---,0.00,VWS V14.00,2013-05-01 09:31:00,
2013-05-01 05:32:00,53.9,49.8,30.11,South,175,0.0,2.0,86,0.00,,---,0.00,VWS V14.00,2013-05-01 09:32:00,
2013-05-01 05:33:00,53.9,49.8,30.12,South,172,2.0,2.0,86,0.00,,---,0.00,VWS V14.00,2013-05-01 09:33:00,
2013-05-01 05:34:00,53.9,49.8,30.12,South,187,0.0,4.0,86,0.00,,---,0.00,VWS V14.00,2013-05-01 09:34:00,
2013-05-01 05:35:00,53.9,49.8,30.12,East,101,4.0,6.0,86,0.00,,---,0.00,VWS V14.00,2013-05-01 09:35:00,
2013-05-01 05:36:00,53.9,49.8,30.12,East,97,0.0,6.0,86,0.00,,---,0.00,VWS V14.00,2013-05-01 09:36:00,
2013-05-01 05:37:00,53.9,49.8,30.11,SSE,161,4.0,6.0,86,0.00,,---,0.00,VWS V14.00,2013-05-01 09:37:00,
2013-05-01 05:38:00,53.9,49.8,30.12,ENE,69,4.0,6.0,86,0.00,,---,0.00,VWS V14.00,2013-05-01 09:38:00,
2013-05-01 05:39:00,53.9,49.8,30.12,SSW,199,0.0,6.0,86,0.00,,---,0.00,VWS V14.00,2013-05-01 09:39:00,
2013-05-01 05:40:00,53.9,49.8,30.12,South,171,2.0,6.0,86,0.00,,---,0.00,VWS V14.00,2013-05-01 09:40:00,
2013-05-01 05:41:00,53.9,49.8,30.12,SE,142,0.0,6.0,86,0.00,,---,0.00,VWS V14.00,2013-05-01 09:41:00,
2013-05-01 05:42:00,53.9,49.8,30.12,SSE,156,1.0,8.0,86,0.00,,---,0.00,VWS V14.00,2013-05-01 09:42:00,
2013-05-01 05:43:00,53.9,49.8,30.12,SSE,156,0.0,8.0,86,0.00,,---,0.00,VWS V14.00,2013-05-01 09:43:00,
2013-05-01 05:44:00,53.9,49.8,30.12,South,180,0.0,8.0,86,0.00,,---,0.00,VWS V14.00,2013-05-01 09:44:00,
2013-05-01 05:45:00,53.9,49.8,30.12,South,179,0.0,8.0,86,0.00,,---,0.00,VWS V14.00,2013-05-01 09:45:00,
2013-05-01 05:46:00,53.9,49.8,30.12,SE,130,0.0,4.0,86,0.00,,---,0.00,VWS V14.00,2013-05-01 09:46:00,
2013-05-01 05:47:00,53.9,49.8,30.12,ESE,115,0.0,4.0,86,0.00,,---,0.00,VWS V14.00,2013-05-01 09:47:00,
2013-05-01 05:48:00,53.9,49.8,30.12,SSE,162,0.0,4.0,86,0.00,,---,0.00,VWS V14.00,2013-05-01 09:48:00,
2013-05-01 05:49:00,53.9,49.8,30.12,SE,146,0.0,6.0,86,0.00,,---,0.00,VWS V14.00,2013-05-01 09:49:00,
2013-05-01 05:50:00,53.9,49.8,30.12,South,188,0.0,6.0,86,0.00,,---,0.00,VWS V14.00,2013-05-01 09:50:00,
2013-05-01 05:51:00,53.9,49.8,30.12,SE,133,0.0,6.0,86,0.00,,---,0.00,VWS V14.00,2013-05-01 09:51:00,
2013-05-01 05:52:00,53.9,49.8,30.12,SSE,156,1.0,6.0,86,0.00,,---,0.00,VWS V14.00,2013-05-01 09:52:00,
2013-05-01 05:53:00,53.9,49.8,30.12,ESE,123,1.0,6.0,86,0.00,,---,0.00,VWS V14.00,2013-05-01 09:53:00,
2013-05-01 05:54:00,53.9,49.8,30.12,SE,124,0.0,6.0,86,0.00,,---,0.00,VWS V14.00,2013-05-01 09:54:00,
2013-05-01 05:55:00,53.9,49.8,30.12,SSW,198,5.0,6.0,86,0.00,,---,0.00,VWS V14.00,2013-05-01 09:55:00,
2013-05-01 05:56:00,53.9,49.8,30.12,SSE,166,0.0,6.0,86,0.00,,---,0.00,VWS V14.00,2013-05-01 09:56:00,
2013-05-01 05:57:00,53.9,49.8,30.13,SSE,153,0.0,6.0,86,0.00,,---,0.00,VWS V14.00,2013-05-01 09:57:00,
2013-05-01 05:58:00,53.9,49.8,30.13,SSW,205,0.0,6.0,86,0.00,,---,0.00,VWS V14.00,2013-05-01 09:58:00,
2013-05-01 05:59:00,53.8,49.7,30.13,East,96,4.0,6.0,86,0.00,,---,0.00,VWS V14.00,2013-05-01 09:59:00,
2013-05-01 06:00:00,53.8,49.7,30.12,SSE,165,0.0,6.0,86,0.00,,---,0.00,VWS V14.00,2013-05-01 10:00:00,
2013-05-01 06:01:00,53.8,49.7,30.13,ESE,109,1.0,8.0,86,0.00,,---,0.00,VWS V14.00,2013-05-01 10:01:00,
2013-05-01 06:02:00,53.8,49.7,30.13,SSW,195,2.0,8.0,86,0.00,,---,0.00,VWS V14.00,2013-05-01 10:02:00,
2013-05-01 06:03:00,53.8,49.7,30.12,SW,225,4.0,8.0,86,0.00,,---,0.00,VWS V14.00,2013-05-01 10:03:00,
2013-05-01 06:04:00,53.8,49.7,30.13,SE,126,2.0,8.0,86,0.00,,---,0.00,VWS V14.00,2013-05-01 10:04:00,
2013-05-01 06:05:00,53.8,49.7,30.13,SSE,155,2.0,8.0,86,0.00,,---,0.00,VWS V14.00,2013-05-01 10:05:00,
2013-05-01 06:06:00,53.8,49.7,30.13,SE,145,0.0,8.0,86,0.00,,---,0.00,VWS V14.00,2013-05-01 10:06:00,
2013-05-01 06:07:00,53.8,49.7,30.13,SE,146,0.0,8.0,86,0.00,,---,0.00,VWS V14.00,2013-05-01 10:07:00,
2013-05-01 06:08:00,53.8,49.7,30.13,SE,127,0.0,8.0,86,0.00,,---,0.00,VWS V14.00,2013-05-01 10:08:00,
2013-05-01 06:09:00,53.8,49.7,30.13,ESE,105,0.0,8.0,86,0.00,,---,0.00,VWS V14.00,2013-05-01 10:09:00,
2013-05-01 06:10:00,53.8,49.7,30.13,ESE,107,0.0,8.0,86,0.00,,---,0.00,VWS V14.00,2013-05-01 10:10:00,
2013-05-01 06:11:00,53.8,49.7,30.13,South,179,2.0,8.0,86,0.00,,---,0.00,VWS V14.00,2013-05-01 10:11:00,